Meteo Giornale » Osservazioni meteo Gran Bretagna » Pembrey Sands

ore: 19:50 - Osservazioni Meteo Pembrey Sands
Lat. 51° 43' N Lon. 4° 22' W Alt. 3 metri s.l.m.

sereno

0 °C

Sereno

Temp. 24 Ore

0 °C

0 °C

Ovest/Sud-Ovest

25.9 Km/h

Dew point 0 °C

Umidità 100 %

Visibilità  12 Km

Il sole sorge alle ore 06:29

Il sole tramonta alle ore 20:04

Data e Ora Cielo e Fenomeni T °C DP °C Um. % Pres. hPa Vis. km Vento km/h
Oggi h: 19:50 sereno Sereno 0 0 100 0 12 O/SO 25.9
Oggi h: 19:20 sereno Sereno 0 0 93 0 12 O/SO 29.6
Oggi h: 18:50 sereno Sereno 0 0 93 0 12 O/SO 29.6
Oggi h: 18:20 sereno Sereno 0 0 93 0 12 O/SO 29.6
Oggi h: 17:50 sereno Sereno 0 0 87 0 12 O/SO 31.5
Oggi h: 17:20 sereno Sereno 0 0 93 0 12 O/SO 27.8
Oggi h: 16:50 sereno Sereno 0 0 87 0 12 O/SO 31.5
Oggi h: 16:20 sereno Sereno 0 0 93 0 12 O/SO 31.5
Oggi h: 15:50 sereno Sereno 0 0 93 0 11 O/SO 24
Oggi h: 15:20 sereno Sereno 0 0 93 0 11 O/SO 35.2
Oggi h: 14:50 sereno Sereno 0 0 93 0 11 O 29.6
Oggi h: 14:20 sereno Sereno 0 0 93 0 11 O 24
Oggi h: 13:50 sereno Sereno 0 0 100 0 11 O 35.2
Oggi h: 13:20 sereno Sereno 0 0 100 0 11 O/SO 35.2
Oggi h: 12:50 sereno Sereno 0 0 100 0 11 O/SO 25.9
Oggi h: 12:20 sereno Sereno 0 0 100 0 11 SO 25.9
Oggi h: 11:50 sereno Sereno 0 0 100 0 11 O/SO 24
Oggi h: 11:20 sereno Sereno 0 0 100 0 11 O/SO 27.8
Oggi h: 10:50 sereno Sereno 0 0 87 0 11 O/SO 24
Oggi h: 10:20 sereno Sereno 0 0 93 0 11 SO 14.8
Oggi h: 09:50 sereno Sereno 0 0 93 0 11 S 7.4
Oggi h: 09:20 sereno Sereno 0 0 100 0 11 SE 5.5
Oggi h: 08:50 sereno Sereno 0 0 100 0 11 E 1.8
Oggi h: 08:20 sereno Sereno 0 0 100 0 11 NE 7.4
Oggi h: 07:50 sereno Sereno 0 0 100 0 11 E/NE 7.4
Oggi h: 07:20 sereno Sereno 0 0 100 0 11 E 7.4
Oggi h: 06:50 sereno Sereno 0 0 100 0 11 E 7.4
Oggi h: 06:20 sereno Sereno 0 0 100 0 11 E 7.4
Oggi h: 05:50 sereno Sereno 0 0 100 0 10 E/NE 5.5
Oggi h: 05:20 sereno Sereno 0 0 100 0 10 E/NE 5.5
Oggi h: 04:50 sereno Sereno 0 0 100 0 10 E 5.5
Oggi h: 04:20 sereno Sereno 0 0 100 0 10 E 5.5
Oggi h: 03:50 sereno Sereno 0 0 100 0 10 E/SE 1.8
Oggi h: 03:20 sereno Sereno 0 0 100 0 10 E/NE 5.5
Oggi h: 02:50 sereno Sereno 0 0 100 0 10 E 7.4
Oggi h: 02:20 sereno Sereno 0 0 100 0 10 E/NE 7.4
Oggi h: 01:50 sereno Sereno 0 0 100 0 10 E 5.5
Oggi h: 01:20 sereno Sereno 0 0 93 0 10 E/NE 5.5
Oggi h: 00:50 sereno Sereno 0 0 93 0 0 N/NE 5.5
Oggi h: 00:20 sereno Sereno 0 0 93 0 0 N/NE 5.5
Ieri h: 23:50 sereno Sereno 0 0 87 0 0 O 14.8
Ieri h: 23:20 sereno Sereno 0 0 93 0 0 O 18.5
Ieri h: 22:50 sereno Sereno 0 0 87 0 0 O 22.2
Ieri h: 22:20 sereno Sereno 0 0 87 0 0 O 22.2
Ieri h: 21:50 sereno Sereno 0 0 87 0 0 O 24
Ieri h: 21:20 sereno Sereno 0 0 81 0 0 O 25.9
Ieri h: 20:50 sereno Sereno 0 0 87 0 0 O 29.6